Time,TemperatureF,DewpointF,PressureIn,WindDirection,WindDirectionDegrees,WindSpeedMPH,WindSpeedGustMPH,Humidity,HourlyPrecipIn,Conditions,Clouds,dailyrainin,SoftwareType,DateUTC
2013-07-20 00:03:00,75.5,69.0,29.65,SE,130,0.0,0.0,80,0.00,,,0.00,weatherlink.com 1.10,2013-07-20 04:03:00,
2013-07-20 00:18:00,74.7,69.0,29.66,NE,51,0.0,2.0,83,0.00,,,0.00,weatherlink.com 1.10,2013-07-20 04:18:00,
2013-07-20 00:33:00,73.9,70.0,29.65,NNW,332,0.0,1.0,86,0.00,,,0.00,weatherlink.com 1.10,2013-07-20 04:33:00,
2013-07-20 00:48:00,73.8,70.0,29.64,NNW,332,0.0,0.0,87,0.00,,,0.00,weatherlink.com 1.10,2013-07-20 04:48:00,
2013-07-20 01:03:00,74.3,69.0,29.63,East,84,0.0,1.0,84,0.00,,,0.00,weatherlink.com 1.10,2013-07-20 05:03:00,
2013-07-20 01:18:00,76.2,69.0,29.60,NE,37,0.0,3.0,79,0.00,,,0.00,weatherlink.com 1.10,2013-07-20 05:18:00,
2013-07-20 01:33:00,76.0,69.0,29.55,NNW,342,0.0,3.0,79,0.00,,,0.00,weatherlink.com 1.10,2013-07-20 05:33:00,
2013-07-20 01:48:00,75.9,70.0,29.58,NNW,339,0.0,3.0,82,0.00,,,0.00,weatherlink.com 1.10,2013-07-20 05:48:00,
2013-07-20 02:03:00,76.4,70.0,29.60,NNE,12,0.0,4.0,80,0.00,,,0.00,weatherlink.com 1.10,2013-07-20 06:03:00,
2013-07-20 02:18:00,76.6,70.0,29.61,WSW,239,0.0,4.0,79,0.00,,,0.00,weatherlink.com 1.10,2013-07-20 06:18:00,
2013-07-20 02:33:00,76.3,70.0,29.61,ENE,67,0.0,3.0,80,0.00,,,0.00,weatherlink.com 1.10,2013-07-20 06:33:00,
2013-07-20 02:48:00,75.8,69.0,29.61,NNW,347,0.0,3.0,79,0.00,,,0.00,weatherlink.com 1.10,2013-07-20 06:48:00,
2013-07-20 03:03:00,75.7,68.0,29.60,NE,36,1.0,2.0,78,0.00,,,0.00,weatherlink.com 1.10,2013-07-20 07:03:00,
2013-07-20 03:18:00,75.5,68.0,29.61,East,94,2.0,3.0,78,0.00,,,0.00,weatherlink.com 1.10,2013-07-20 07:18:00,
2013-07-20 03:33:00,75.3,68.0,29.61,WSW,255,0.0,2.0,79,0.00,,,0.00,weatherlink.com 1.10,2013-07-20 07:33:00,
2013-07-20 03:48:00,75.0,68.0,29.61,NE,34,0.0,1.0,79,0.00,,,0.00,weatherlink.com 1.10,2013-07-20 07:48:00,
2013-07-20 04:03:00,74.7,68.0,29.61,WNW,295,1.0,1.0,79,0.00,,,0.00,weatherlink.com 1.10,2013-07-20 08:03:00,
2013-07-20 04:18:00,74.4,68.0,29.61,North,352,0.0,1.0,80,0.00,,,0.00,weatherlink.com 1.10,2013-07-20 08:18:00,
2013-07-20 04:34:00,74.4,68.0,29.61,ESE,108,0.0,1.0,79,0.00,,,0.00,weatherlink.com 1.10,2013-07-20 08:34:00,
2013-07-20 04:48:00,74.1,68.0,29.62,North,1,0.0,1.0,80,0.00,,,0.00,weatherlink.com 1.10,2013-07-20 08:48:00,
2013-07-20 05:04:00,73.7,68.0,29.62,NNE,18,0.0,2.0,81,0.00,,,0.00,weatherlink.com 1.10,2013-07-20 09:04:00,
2013-07-20 05:19:00,73.0,68.0,29.62,NNW,346,0.0,1.0,84,0.00,,,0.00,weatherlink.com 1.10,2013-07-20 09:19:00,
2013-07-20 05:34:00,72.2,68.0,29.63,NNW,342,0.0,2.0,86,0.00,,,0.00,weatherlink.com 1.10,2013-07-20 09:34:00,
2013-07-20 05:49:00,72.0,69.0,29.63,NNW,342,0.0,1.0,90,0.00,,,0.00,weatherlink.com 1.10,2013-07-20 09:49:00,
2013-07-20 06:04:00,71.9,69.0,29.63,NNW,341,0.0,0.0,90,0.00,,,0.00,weatherlink.com 1.10,2013-07-20 10:04:00,
2013-07-20 06:19:00,71.4,68.0,29.64,NNW,342,1.0,1.0,90,0.00,,,0.00,weatherlink.com 1.10,2013-07-20 10:19:00,
2013-07-20 06:34:00,71.3,69.0,29.64,NNW,341,0.0,1.0,92,0.00,,,0.00,weatherlink.com 1.10,2013-07-20 10:34:00,
2013-07-20 06:49:00,71.4,69.0,29.64,NNW,342,0.0,0.0,92,0.00,,,0.00,weatherlink.com 1.10,2013-07-20 10:49:00,
2013-07-20 07:04:00,71.5,69.0,29.65,NNW,342,0.0,1.0,92,0.00,,,0.00,weatherlink.com 1.10,2013-07-20 11:04:00,
2013-07-20 07:19:00,72.5,70.0,29.65,ENE,57,0.0,0.0,91,0.00,,,0.00,weatherlink.com 1.10,2013-07-20 11:19:00,
2013-07-20 07:34:00,73.6,69.0,29.65,ENE,63,1.0,1.0,85,0.00,,,0.00,weatherlink.com 1.10,2013-07-20 11:34:00,
2013-07-20 07:49:00,75.1,70.0,29.66,SE,146,0.0,1.0,83,0.00,,,0.00,weatherlink.com 1.10,2013-07-20 11:49:00,
2013-07-20 08:04:00,76.1,69.0,29.66,SE,136,0.0,1.0,78,0.00,,,0.00,weatherlink.com 1.10,2013-07-20 12:04:00,
2013-07-20 08:19:00,76.6,70.0,29.65,North,6,0.0,1.0,80,0.00,,,0.00,weatherlink.com 1.10,2013-07-20 12:19:00,
2013-07-20 08:34:00,77.6,70.0,29.65,West,280,0.0,1.0,76,0.00,,,0.00,weatherlink.com 1.10,2013-07-20 12:34:00,
2013-07-20 08:49:00,78.3,69.0,29.65,WNW,298,1.0,1.0,74,0.00,,,0.00,weatherlink.com 1.10,2013-07-20 12:49:00,
2013-07-20 09:04:00,79.2,69.0,29.65,East,88,0.0,7.0,72,0.00,,,0.00,weatherlink.com 1.10,2013-07-20 13:04:00,
2013-07-20 09:19:00,79.7,70.0,29.64,ESE,102,0.0,3.0,71,0.00,,,0.00,weatherlink.com 1.10,2013-07-20 13:19:00,
2013-07-20 09:49:00,80.6,69.0,29.63,East,88,1.0,4.0,67,0.00,,,0.00,weatherlink.com 1.10,2013-07-20 13:49:00,
2013-07-20 10:04:00,81.3,69.0,29.62,East,84,1.0,4.0,67,0.00,,,0.00,weatherlink.com 1.10,2013-07-20 14:04:00,
2013-07-20 10:19:00,82.4,69.0,29.62,NW,308,4.0,5.0,64,0.00,,,0.00,weatherlink.com 1.10,2013-07-20 14:19:00,
2013-07-20 10:34:00,82.8,68.0,29.62,East,101,1.0,4.0,62,0.00,,,0.00,weatherlink.com 1.10,2013-07-20 14:34:00,
2013-07-20 10:49:00,83.9,68.0,29.62,NNW,332,3.0,5.0,60,0.00,,,0.00,weatherlink.com 1.10,2013-07-20 14:49:00,
2013-07-20 11:04:00,83.8,69.0,29.62,WNW,301,1.0,5.0,61,0.00,,,0.00,weatherlink.com 1.10,2013-07-20 15:04:00,
2013-07-20 11:19:00,83.4,68.0,29.62,WNW,303,5.0,6.0,60,0.00,,,0.00,weatherlink.com 1.10,2013-07-20 15:19:00,
2013-07-20 11:34:00,84.9,67.0,29.62,SE,138,1.0,5.0,56,0.00,,,0.00,weatherlink.com 1.10,2013-07-20 15:34:00,
2013-07-20 11:49:00,84.8,68.0,29.62,ENE,77,1.0,6.0,57,0.00,,,0.00,weatherlink.com 1.10,2013-07-20 15:49:00,
2013-07-20 12:04:00,85.2,69.0,29.62,East,79,0.0,6.0,58,0.00,,,0.00,weatherlink.com 1.10,2013-07-20 16:04:00,
2013-07-20 12:19:00,84.8,67.0,29.61,SW,219,0.0,3.0,55,0.00,,,0.00,weatherlink.com 1.10,2013-07-20 16:19:00,
2013-07-20 12:34:00,86.0,67.0,29.61,WSW,256,1.0,4.0,53,0.00,,,0.00,weatherlink.com 1.10,2013-07-20 16:34:00,
2013-07-20 12:49:00,86.9,67.0,29.60,ESE,112,2.0,5.0,52,0.00,,,0.00,weatherlink.com 1.10,2013-07-20 16:49:00,
2013-07-20 13:04:00,87.1,66.0,29.60,East,83,0.0,8.0,49,0.00,,,0.00,weatherlink.com 1.10,2013-07-20 17:04:00,
2013-07-20 13:20:00,87.8,68.0,29.60,West,267,2.0,5.0,52,0.00,,,0.00,weatherlink.com 1.10,2013-07-20 17:20:00,
2013-07-20 13:35:00,87.2,68.0,29.59,SE,141,2.0,6.0,53,0.00,,,0.00,weatherlink.com 1.10,2013-07-20 17:35:00,
2013-07-20 13:50:00,86.0,68.0,29.59,SE,134,0.0,3.0,56,0.00,,,0.00,weatherlink.com 1.10,2013-07-20 17:50:00,
2013-07-20 14:05:00,84.6,69.0,29.59,ESE,117,0.0,4.0,60,0.00,,,0.00,weatherlink.com 1.10,2013-07-20 18:05:00,
2013-07-20 14:20:00,83.4,68.0,29.59,ENE,65,0.0,4.0,61,0.00,,,0.00,weatherlink.com 1.10,2013-07-20 18:20:00,
2013-07-20 14:35:00,82.7,69.0,29.59,East,99,0.0,5.0,63,0.00,,,0.00,weatherlink.com 1.10,2013-07-20 18:35:00,
2013-07-20 14:50:00,82.7,71.0,29.59,ENE,63,0.0,2.0,67,0.00,,,0.00,weatherlink.com 1.10,2013-07-20 18:50:00,
2013-07-20 15:05:00,84.7,70.0,29.58,WNW,288,5.0,5.0,62,0.00,,,0.00,weatherlink.com 1.10,2013-07-20 19:05:00,
2013-07-20 15:20:00,86.3,70.0,29.57,ESE,122,2.0,7.0,58,0.00,,,0.00,weatherlink.com 1.10,2013-07-20 19:20:00,
2013-07-20 15:35:00,85.8,68.0,29.57,SSE,166,4.0,9.0,56,0.00,,,0.00,weatherlink.com 1.10,2013-07-20 19:35:00,
2013-07-20 15:50:00,85.7,69.0,29.57,NW,321,3.0,9.0,57,0.00,,,0.00,weatherlink.com 1.10,2013-07-20 19:50:00,
2013-07-20 16:05:00,85.3,69.0,29.58,NW,314,0.0,3.0,59,0.00,,,0.00,weatherlink.com 1.10,2013-07-20 20:05:00,
2013-07-20 16:20:00,84.7,70.0,29.58,East,87,1.0,3.0,61,0.00,,,0.00,weatherlink.com 1.10,2013-07-20 20:20:00,
2013-07-20 16:35:00,84.7,71.0,29.58,East,99,0.0,4.0,63,0.00,,,0.00,weatherlink.com 1.10,2013-07-20 20:35:00,
2013-07-20 17:05:00,83.6,70.0,29.60,WNW,298,5.0,8.0,63,0.00,,,0.00,weatherlink.com 1.10,2013-07-20 21:05:00,
2013-07-20 17:20:00,80.2,68.0,29.61,NW,310,2.0,9.0,67,0.00,,,0.00,weatherlink.com 1.10,2013-07-20 21:20:00,
2013-07-20 17:35:00,78.5,69.0,29.61,NW,313,0.0,6.0,72,0.00,,,0.00,weatherlink.com 1.10,2013-07-20 21:35:00,
2013-07-20 18:05:00,73.3,70.0,29.63,NW,313,0.0,1.0,88,0.17,,,0.17,weatherlink.com 1.10,2013-07-20 22:05:00,
2013-07-20 18:20:00,72.4,70.0,29.63,NW,312,0.0,1.0,93,0.17,,,0.17,weatherlink.com 1.10,2013-07-20 22:20:00,
2013-07-20 18:35:00,72.5,71.0,29.64,NW,315,0.0,2.0,95,0.17,,,0.17,weatherlink.com 1.10,2013-07-20 22:35:00,
2013-07-20 18:50:00,72.8,71.0,29.64,NW,312,0.0,1.0,95,0.17,,,0.17,weatherlink.com 1.10,2013-07-20 22:50:00,
2013-07-20 19:05:00,73.3,72.0,29.64,NNE,19,0.0,0.0,95,0.00,,,0.17,weatherlink.com 1.10,2013-07-20 23:05:00,
2013-07-20 19:20:00,73.5,72.0,29.65,NNE,19,0.0,0.0,95,0.00,,,0.17,weatherlink.com 1.10,2013-07-20 23:20:00,
2013-07-20 19:35:00,73.3,72.0,29.65,NNE,19,0.0,0.0,96,0.00,,,0.17,weatherlink.com 1.10,2013-07-20 23:35:00,
2013-07-20 19:50:00,73.0,72.0,29.65,NNE,19,0.0,0.0,96,0.00,,,0.17,weatherlink.com 1.10,2013-07-20 23:50:00,
2013-07-20 20:05:00,72.3,71.0,29.66,NNE,19,0.0,0.0,95,0.00,,,0.17,weatherlink.com 1.10,2013-07-21 00:05:00,
2013-07-20 20:20:00,71.8,71.0,29.66,NNW,328,0.0,2.0,96,0.00,,,0.17,weatherlink.com 1.10,2013-07-21 00:20:00,
2013-07-20 20:35:00,71.3,70.0,29.67,NNW,328,0.0,0.0,97,0.00,,,0.17,weatherlink.com 1.10,2013-07-21 00:35:00,
2013-07-20 20:50:00,70.9,70.0,29.67,NNW,327,0.0,0.0,97,0.00,,,0.17,weatherlink.com 1.10,2013-07-21 00:50:00,
2013-07-20 21:05:00,70.4,70.0,29.68,NNW,328,0.0,0.0,97,0.00,,,0.17,weatherlink.com 1.10,2013-07-21 01:05:00,
2013-07-20 21:20:00,69.8,69.0,29.70,NNW,327,0.0,0.0,97,0.00,,,0.17,weatherlink.com 1.10,2013-07-21 01:20:00,
2013-07-20 21:50:00,68.2,67.0,29.71,NW,325,0.0,0.0,96,0.00,,,0.17,weatherlink.com 1.10,2013-07-21 01:50:00,
2013-07-20 22:05:00,67.3,67.0,29.71,NW,319,0.0,0.0,97,0.00,,,0.17,weatherlink.com 1.10,2013-07-21 02:05:00,
2013-07-20 22:20:00,66.5,65.0,29.72,NW,319,0.0,0.0,96,0.00,,,0.17,weatherlink.com 1.10,2013-07-21 02:20:00,
2013-07-20 22:35:00,65.9,65.0,29.73,NW,319,0.0,0.0,96,0.00,,,0.17,weatherlink.com 1.10,2013-07-21 02:35:00,
2013-07-20 22:50:00,65.4,65.0,29.74,NW,319,0.0,0.0,97,0.00,,,0.17,weatherlink.com 1.10,2013-07-21 02:50:00,
2013-07-20 23:05:00,65.1,64.0,29.75,NW,319,0.0,0.0,97,0.00,,,0.17,weatherlink.com 1.10,2013-07-21 03:05:00,
2013-07-20 23:20:00,64.8,64.0,29.76,NW,317,0.0,0.0,97,0.00,,,0.17,weatherlink.com 1.10,2013-07-21 03:20:00,
2013-07-20 23:50:00,64.2,63.0,29.77,NW,314,0.0,0.0,97,0.00,,,0.17,weatherlink.com 1.10,2013-07-21 03:50:00,